owner,sensor,date,latitude,longitude,sea_surface_height_above_sea_level,qcFlag 
COMPS,ioos:station:USF.COMPS:BGC:1,2010-01-01T00:00:00Z,26.4040,-81.8810,-0.03,1111122 
COMPS,ioos:station:USF.COMPS:BGC:1,2010-01-01T00:06:00Z,26.4040,-81.8810,0.008,1111122 
COMPS,ioos:station:USF.COMPS:BGC:1,2010-01-01T00:12:00Z,26.4040,-81.8810,0.004,1111122 
COMPS,ioos:station:USF.COMPS:BGC:1,2010-01-01T00:18:00Z,26.4040,-81.8810,0.007,1111122 
COMPS,ioos:station:USF.COMPS:BGC:1,2010-01-01T00:24:00Z,26.4040,-81.8810,0.012,1111122 
COMPS,ioos:station:USF.COMPS:BGC:1,2010-01-01T00:30:00Z,26.4040,-81.8810,0.018,1111122 
COMPS,ioos:station:USF.COMPS:BGC:1,2010-01-01T00:36:00Z,26.4040,-81.8810,0.02,1111122 
COMPS,ioos:station:USF.COMPS:BGC:1,2010-01-01T00:42:00Z,26.4040,-81.8810,0.033,1111122 
COMPS,ioos:station:USF.COMPS:BGC:1,2010-01-01T00:48:00Z,26.4040,-81.8810,0.057,1111122 
COMPS,ioos:station:USF.COMPS:BGC:1,2010-01-01T00:54:00Z,26.4040,-81.8810,0.067,1111122 
COMPS,ioos:station:USF.COMPS:BGC:1,2010-01-01T01:00:00Z,26.4040,-81.8810,0.081,1111122 
COMPS,ioos:station:USF.COMPS:BGC:1,2010-01-01T01:06:00Z,26.4040,-81.8810,0.082,1111122 
COMPS,ioos:station:USF.COMPS:BGC:1,2010-01-01T01:12:00Z,26.4040,-81.8810,0.104,1111122 
COMPS,ioos:station:USF.COMPS:BGC:1,2010-01-01T01:18:00Z,26.4040,-81.8810,0.107,1111122 
COMPS,ioos:station:USF.COMPS:BGC:1,2010-01-01T01:24:00Z,26.4040,-81.8810,0.128,1111122 
COMPS,ioos:station:USF.COMPS:BGC:1,2010-01-01T01:30:00Z,26.4040,-81.8810,0.136,1111122 
COMPS,ioos:station:USF.COMPS:BGC:1,2010-01-01T01:36:00Z,26.4040,-81.8810,0.157,1111122 
COMPS,ioos:station:USF.COMPS:BGC:1,2010-01-01T01:42:00Z,26.4040,-81.8810,0.168,1111122 
COMPS,ioos:station:USF.COMPS:BGC:1,2010-01-01T01:48:00Z,26.4040,-81.8810,0.174,1111122 
COMPS,ioos:station:USF.COMPS:BGC:1,2010-01-01T01:54:00Z,26.4040,-81.8810,0.197,1111122 
COMPS,ioos:station:USF.COMPS:BGC:1,2010-01-01T02:00:00Z,26.4040,-81.8810,0.207,1111122 
COMPS,ioos:station:USF.COMPS:BGC:1,2010-01-01T02:06:00Z,26.4040,-81.8810,0.218,1111122 
COMPS,ioos:station:USF.COMPS:BGC:1,2010-01-01T02:12:00Z,26.4040,-81.8810,0.244,1111122 
COMPS,ioos:station:USF.COMPS:BGC:1,2010-01-01T02:18:00Z,26.4040,-81.8810,0.25,1111122 
COMPS,ioos:station:USF.COMPS:BGC:1,2010-01-01T02:24:00Z,26.4040,-81.8810,0.258,1111122 
COMPS,ioos:station:USF.COMPS:BGC:1,2010-01-01T02:30:00Z,26.4040,-81.8810,0.278,1111122 
COMPS,ioos:station:USF.COMPS:BGC:1,2010-01-01T02:36:00Z,26.4040,-81.8810,0.284,1111122 
COMPS,ioos:station:USF.COMPS:BGC:1,2010-01-01T02:42:00Z,26.4040,-81.8810,0.303,1111122 
COMPS,ioos:station:USF.COMPS:BGC:1,2010-01-01T02:48:00Z,26.4040,-81.8810,0.318,1111122 
COMPS,ioos:station:USF.COMPS:BGC:1,2010-01-01T02:54:00Z,26.4040,-81.8810,0.32,1111122 
COMPS,ioos:station:USF.COMPS:BGC:1,2010-01-01T03:00:00Z,26.4040,-81.8810,0.337,1111122 
COMPS,ioos:station:USF.COMPS:BGC:1,2010-01-01T03:06:00Z,26.4040,-81.8810,0.353,1111122 
COMPS,ioos:station:USF.COMPS:BGC:1,2010-01-01T03:12:00Z,26.4040,-81.8810,0.357,1111122 
COMPS,ioos:station:USF.COMPS:BGC:1,2010-01-01T03:18:00Z,26.4040,-81.8810,0.376,1111122 
COMPS,ioos:station:USF.COMPS:BGC:1,2010-01-01T03:24:00Z,26.4040,-81.8810,0.386,1111122 
COMPS,ioos:station:USF.COMPS:BGC:1,2010-01-01T03:30:00Z,26.4040,-81.8810,0.385,1111122 
COMPS,ioos:station:USF.COMPS:BGC:1,2010-01-01T03:36:00Z,26.4040,-81.8810,0.395,1111122 
COMPS,ioos:station:USF.COMPS:BGC:1,2010-01-01T03:42:00Z,26.4040,-81.8810,0.403,1111122 
COMPS,ioos:station:USF.COMPS:BGC:1,2010-01-01T03:48:00Z,26.4040,-81.8810,0.419,1111122 
COMPS,ioos:station:USF.COMPS:BGC:1,2010-01-01T03:54:00Z,26.4040,-81.8810,0.418,1111122 
COMPS,ioos:station:USF.COMPS:BGC:1,2010-01-01T04:00:00Z,26.4040,-81.8810,0.428,1111122 
COMPS,ioos:station:USF.COMPS:BGC:1,2010-01-01T04:06:00Z,26.4040,-81.8810,0.431,1111122 
COMPS,ioos:station:USF.COMPS:BGC:1,2010-01-01T04:12:00Z,26.4040,-81.8810,0.441,1111122 
COMPS,ioos:station:USF.COMPS:BGC:1,2010-01-01T04:18:00Z,26.4040,-81.8810,0.442,1111122 
COMPS,ioos:station:USF.COMPS:BGC:1,2010-01-01T04:24:00Z,26.4040,-81.8810,0.457,1111122 
COMPS,ioos:station:USF.COMPS:BGC:1,2010-01-01T04:30:00Z,26.4040,-81.8810,0.456,1111122 
COMPS,ioos:station:USF.COMPS:BGC:1,2010-01-01T04:36:00Z,26.4040,-81.8810,0.468,1111122 
COMPS,ioos:station:USF.COMPS:BGC:1,2010-01-01T04:42:00Z,26.4040,-81.8810,0.471,1111122 
COMPS,ioos:station:USF.COMPS:BGC:1,2010-01-01T04:48:00Z,26.4040,-81.8810,0.471,1111122 
COMPS,ioos:station:USF.COMPS:BGC:1,2010-01-01T04:54:00Z,26.4040,-81.8810,0.477,1111122 
COMPS,ioos:station:USF.COMPS:BGC:1,2010-01-01T05:00:00Z,26.4040,-81.8810,0.466,1111122 
COMPS,ioos:station:USF.COMPS:BGC:1,2010-01-01T05:06:00Z,26.4040,-81.8810,0.479,1111122 
COMPS,ioos:station:USF.COMPS:BGC:1,2010-01-01T05:12:00Z,26.4040,-81.8810,0.473,1111122 
COMPS,ioos:station:USF.COMPS:BGC:1,2010-01-01T05:18:00Z,26.4040,-81.8810,0.467,1111122 
COMPS,ioos:station:USF.COMPS:BGC:1,2010-01-01T05:24:00Z,26.4040,-81.8810,0.477,1111122 
COMPS,ioos:station:USF.COMPS:BGC:1,2010-01-01T05:30:00Z,26.4040,-81.8810,0.469,1111122 
COMPS,ioos:station:USF.COMPS:BGC:1,2010-01-01T05:36:00Z,26.4040,-81.8810,0.471,1111122 
COMPS,ioos:station:USF.COMPS:BGC:1,2010-01-01T05:42:00Z,26.4040,-81.8810,0.446,1111122 
COMPS,ioos:station:USF.COMPS:BGC:1,2010-01-01T05:48:00Z,26.4040,-81.8810,0.441,1111122 
COMPS,ioos:station:USF.COMPS:BGC:1,2010-01-01T05:54:00Z,26.4040,-81.8810,0.433,1111122 
COMPS,ioos:station:USF.COMPS:BGC:1,2010-01-01T06:00:00Z,26.4040,-81.8810,0.41,1111122 
COMPS,ioos:station:USF.COMPS:BGC:1,2010-01-01T06:06:00Z,26.4040,-81.8810,0.409,1111122 
COMPS,ioos:station:USF.COMPS:BGC:1,2010-01-01T06:12:00Z,26.4040,-81.8810,0.385,1111122 
COMPS,ioos:station:USF.COMPS:BGC:1,2010-01-01T06:18:00Z,26.4040,-81.8810,0.376,1111122 
COMPS,ioos:station:USF.COMPS:BGC:1,2010-01-01T06:24:00Z,26.4040,-81.8810,0.367,1111122 
COMPS,ioos:station:USF.COMPS:BGC:1,2010-01-01T06:30:00Z,26.4040,-81.8810,0.343,1111122 
COMPS,ioos:station:USF.COMPS:BGC:1,2010-01-01T06:36:00Z,26.4040,-81.8810,0.335,1111122 
COMPS,ioos:station:USF.COMPS:BGC:1,2010-01-01T06:42:00Z,26.4040,-81.8810,0.325,1111122 
COMPS,ioos:station:USF.COMPS:BGC:1,2010-01-01T06:48:00Z,26.4040,-81.8810,0.296,1111122 
COMPS,ioos:station:USF.COMPS:BGC:1,2010-01-01T06:54:00Z,26.4040,-81.8810,0.277,1111122 
COMPS,ioos:station:USF.COMPS:BGC:1,2010-01-01T07:00:00Z,26.4040,-81.8810,0.269,1111122 
COMPS,ioos:station:USF.COMPS:BGC:1,2010-01-01T07:06:00Z,26.4040,-81.8810,0.252,1111122 
COMPS,ioos:station:USF.COMPS:BGC:1,2010-01-01T07:12:00Z,26.4040,-81.8810,0.232,1111122 
COMPS,ioos:station:USF.COMPS:BGC:1,2010-01-01T07:18:00Z,26.4040,-81.8810,0.224,1111122 
COMPS,ioos:station:USF.COMPS:BGC:1,2010-01-01T07:24:00Z,26.4040,-81.8810,0.213,1111122 
COMPS,ioos:station:USF.COMPS:BGC:1,2010-01-01T07:30:00Z,26.4040,-81.8810,0.181,1111122 
COMPS,ioos:station:USF.COMPS:BGC:1,2010-01-01T07:36:00Z,26.4040,-81.8810,0.175,1111122 
COMPS,ioos:station:USF.COMPS:BGC:1,2010-01-01T07:42:00Z,26.4040,-81.8810,0.149,1111122 
COMPS,ioos:station:USF.COMPS:BGC:1,2010-01-01T07:48:00Z,26.4040,-81.8810,0.139,1111122 
COMPS,ioos:station:USF.COMPS:BGC:1,2010-01-01T07:54:00Z,26.4040,-81.8810,0.118,1111122 
COMPS,ioos:station:USF.COMPS:BGC:1,2010-01-01T08:00:00Z,26.4040,-81.8810,0.106,1111122 
COMPS,ioos:station:USF.COMPS:BGC:1,2010-01-01T08:06:00Z,26.4040,-81.8810,0.076,1111122 
COMPS,ioos:station:USF.COMPS:BGC:1,2010-01-01T08:12:00Z,26.4040,-81.8810,0.059,1111122 
COMPS,ioos:station:USF.COMPS:BGC:1,2010-01-01T08:18:00Z,26.4040,-81.8810,0.042,1111122 
COMPS,ioos:station:USF.COMPS:BGC:1,2010-01-01T08:24:00Z,26.4040,-81.8810,0.024,1111122 
COMPS,ioos:station:USF.COMPS:BGC:1,2010-01-01T08:30:00Z,26.4040,-81.8810,-0.004,1111122 
COMPS,ioos:station:USF.COMPS:BGC:1,2010-01-01T08:36:00Z,26.4040,-81.8810,-0.016,1111122 
COMPS,ioos:station:USF.COMPS:BGC:1,2010-01-01T08:42:00Z,26.4040,-81.8810,-0.038,1111122 
COMPS,ioos:station:USF.COMPS:BGC:1,2010-01-01T08:48:00Z,26.4040,-81.8810,-0.051,1111122 
COMPS,ioos:station:USF.COMPS:BGC:1,2010-01-01T08:54:00Z,26.4040,-81.8810,-0.06,1111122 
COMPS,ioos:station:USF.COMPS:BGC:1,2010-01-01T09:00:00Z,26.4040,-81.8810,-0.091,1111122 
COMPS,ioos:station:USF.COMPS:BGC:1,2010-01-01T09:06:00Z,26.4040,-81.8810,-0.11,1111122 
COMPS,ioos:station:USF.COMPS:BGC:1,2010-01-01T09:12:00Z,26.4040,-81.8810,-0.13,1111122 
COMPS,ioos:station:USF.COMPS:BGC:1,2010-01-01T09:18:00Z,26.4040,-81.8810,-0.151,1111122 
COMPS,ioos:station:USF.COMPS:BGC:1,2010-01-01T09:24:00Z,26.4040,-81.8810,-0.167,1111122 
COMPS,ioos:station:USF.COMPS:BGC:1,2010-01-01T09:30:00Z,26.4040,-81.8810,-0.184,1111122 
COMPS,ioos:station:USF.COMPS:BGC:1,2010-01-01T09:36:00Z,26.4040,-81.8810,-0.202,1111122 
COMPS,ioos:station:USF.COMPS:BGC:1,2010-01-01T09:42:00Z,26.4040,-81.8810,-0.222,1111122 
COMPS,ioos:station:USF.COMPS:BGC:1,2010-01-01T09:48:00Z,26.4040,-81.8810,-0.248,1111122 
COMPS,ioos:station:USF.COMPS:BGC:1,2010-01-01T09:54:00Z,26.4040,-81.8810,-0.26,1111122 
COMPS,ioos:station:USF.COMPS:BGC:1,2010-01-01T10:00:00Z,26.4040,-81.8810,-0.264,1111122 
COMPS,ioos:station:USF.COMPS:BGC:1,2010-01-01T10:06:00Z,26.4040,-81.8810,-0.295,1111122 
COMPS,ioos:station:USF.COMPS:BGC:1,2010-01-01T10:12:00Z,26.4040,-81.8810,-0.323,1111122 
COMPS,ioos:station:USF.COMPS:BGC:1,2010-01-01T10:18:00Z,26.4040,-81.8810,-0.329,1111122 
COMPS,ioos:station:USF.COMPS:BGC:1,2010-01-01T10:24:00Z,26.4040,-81.8810,-0.341,1111122 
COMPS,ioos:station:USF.COMPS:BGC:1,2010-01-01T10:30:00Z,26.4040,-81.8810,-0.357,1111122 
COMPS,ioos:station:USF.COMPS:BGC:1,2010-01-01T10:36:00Z,26.4040,-81.8810,-0.386,1111122 
COMPS,ioos:station:USF.COMPS:BGC:1,2010-01-01T10:42:00Z,26.4040,-81.8810,-0.397,1111122 
COMPS,ioos:station:USF.COMPS:BGC:1,2010-01-01T10:48:00Z,26.4040,-81.8810,-0.408,1111122 
COMPS,ioos:station:USF.COMPS:BGC:1,2010-01-01T10:54:00Z,26.4040,-81.8810,-0.428,1111122 
COMPS,ioos:station:USF.COMPS:BGC:1,2010-01-01T11:00:00Z,26.4040,-81.8810,-0.443,1111122 
COMPS,ioos:station:USF.COMPS:BGC:1,2010-01-01T11:06:00Z,26.4040,-81.8810,-0.461,1111122 
COMPS,ioos:station:USF.COMPS:BGC:1,2010-01-01T11:12:00Z,26.4040,-81.8810,-0.473,1111122 
COMPS,ioos:station:USF.COMPS:BGC:1,2010-01-01T11:18:00Z,26.4040,-81.8810,-0.485,1111122 
COMPS,ioos:station:USF.COMPS:BGC:1,2010-01-01T11:24:00Z,26.4040,-81.8810,-0.504,1111122 
COMPS,ioos:station:USF.COMPS:BGC:1,2010-01-01T11:30:00Z,26.4040,-81.8810,-0.512,1111122 
COMPS,ioos:station:USF.COMPS:BGC:1,2010-01-01T11:36:00Z,26.4040,-81.8810,-0.525,1111122 
COMPS,ioos:station:USF.COMPS:BGC:1,2010-01-01T11:42:00Z,26.4040,-81.8810,-0.539,1111122 
COMPS,ioos:station:USF.COMPS:BGC:1,2010-01-01T11:48:00Z,26.4040,-81.8810,-0.551,1111122 
COMPS,ioos:station:USF.COMPS:BGC:1,2010-01-01T11:54:00Z,26.4040,-81.8810,-0.559,1111122 
COMPS,ioos:station:USF.COMPS:BGC:1,2010-01-01T12:00:00Z,26.4040,-81.8810,-0.57,1111122 
COMPS,ioos:station:USF.COMPS:BGC:1,2010-01-01T12:06:00Z,26.4040,-81.8810,-0.582,1111122 
COMPS,ioos:station:USF.COMPS:BGC:1,2010-01-01T12:12:00Z,26.4040,-81.8810,-0.585,1111122 
COMPS,ioos:station:USF.COMPS:BGC:1,2010-01-01T12:18:00Z,26.4040,-81.8810,-0.586,1111122 
COMPS,ioos:station:USF.COMPS:BGC:1,2010-01-01T12:24:00Z,26.4040,-81.8810,-0.587,1111122 
COMPS,ioos:station:USF.COMPS:BGC:1,2010-01-01T12:30:00Z,26.4040,-81.8810,-0.608,1111122 
COMPS,ioos:station:USF.COMPS:BGC:1,2010-01-01T12:36:00Z,26.4040,-81.8810,-0.609,1111122 
COMPS,ioos:station:USF.COMPS:BGC:1,2010-01-01T12:42:00Z,26.4040,-81.8810,-0.596,1111122 
COMPS,ioos:station:USF.COMPS:BGC:1,2010-01-01T12:48:00Z,26.4040,-81.8810,-0.606,1111122 
COMPS,ioos:station:USF.COMPS:BGC:1,2010-01-01T12:54:00Z,26.4040,-81.8810,-0.602,1111122 
COMPS,ioos:station:USF.COMPS:BGC:1,2010-01-01T13:00:00Z,26.4040,-81.8810,-0.586,1111122 
COMPS,ioos:station:USF.COMPS:BGC:1,2010-01-01T13:06:00Z,26.4040,-81.8810,-0.588,1111122 
COMPS,ioos:station:USF.COMPS:BGC:1,2010-01-01T13:12:00Z,26.4040,-81.8810,-0.594,1111122 
COMPS,ioos:station:USF.COMPS:BGC:1,2010-01-01T13:18:00Z,26.4040,-81.8810,-0.565,1111122 
COMPS,ioos:station:USF.COMPS:BGC:1,2010-01-01T13:24:00Z,26.4040,-81.8810,-0.558,1111122 
COMPS,ioos:station:USF.COMPS:BGC:1,2010-01-01T13:30:00Z,26.4040,-81.8810,-0.565,1111122 
COMPS,ioos:station:USF.COMPS:BGC:1,2010-01-01T13:36:00Z,26.4040,-81.8810,-0.522,1111122 
COMPS,ioos:station:USF.COMPS:BGC:1,2010-01-01T13:42:00Z,26.4040,-81.8810,-0.489,1111122 
COMPS,ioos:station:USF.COMPS:BGC:1,2010-01-01T13:48:00Z,26.4040,-81.8810,-0.481,1111122 
COMPS,ioos:station:USF.COMPS:BGC:1,2010-01-01T13:54:00Z,26.4040,-81.8810,-0.487,1111122 
COMPS,ioos:station:USF.COMPS:BGC:1,2010-01-01T14:00:00Z,26.4040,-81.8810,-0.463,1111122 
COMPS,ioos:station:USF.COMPS:BGC:1,2010-01-01T14:06:00Z,26.4040,-81.8810,-0.458,1111122 
COMPS,ioos:station:USF.COMPS:BGC:1,2010-01-01T14:12:00Z,26.4040,-81.8810,-0.446,1111122 
COMPS,ioos:station:USF.COMPS:BGC:1,2010-01-01T14:18:00Z,26.4040,-81.8810,-0.429,1111122 
COMPS,ioos:station:USF.COMPS:BGC:1,2010-01-01T14:24:00Z,26.4040,-81.8810,-0.395,1111122 
COMPS,ioos:station:USF.COMPS:BGC:1,2010-01-01T14:30:00Z,26.4040,-81.8810,-0.408,1111122 
COMPS,ioos:station:USF.COMPS:BGC:1,2010-01-01T14:36:00Z,26.4040,-81.8810,-0.386,1111122 
COMPS,ioos:station:USF.COMPS:BGC:1,2010-01-01T14:42:00Z,26.4040,-81.8810,-0.368,1111122 
COMPS,ioos:station:USF.COMPS:BGC:1,2010-01-01T14:48:00Z,26.4040,-81.8810,-0.351,1111122 
COMPS,ioos:station:USF.COMPS:BGC:1,2010-01-01T14:54:00Z,26.4040,-81.8810,-0.346,1111122 
COMPS,ioos:station:USF.COMPS:BGC:1,2010-01-01T15:00:00Z,26.4040,-81.8810,-0.329,1111122 
COMPS,ioos:station:USF.COMPS:BGC:1,2010-01-01T15:06:00Z,26.4040,-81.8810,-0.299,1111122 
COMPS,ioos:station:USF.COMPS:BGC:1,2010-01-01T15:12:00Z,26.4040,-81.8810,-0.295,1111122 
COMPS,ioos:station:USF.COMPS:BGC:1,2010-01-01T15:18:00Z,26.4040,-81.8810,-0.288,1111122 
COMPS,ioos:station:USF.COMPS:BGC:1,2010-01-01T15:24:00Z,26.4040,-81.8810,-0.272,1111122 
COMPS,ioos:station:USF.COMPS:BGC:1,2010-01-01T15:30:00Z,26.4040,-81.8810,-0.238,1111122 
COMPS,ioos:station:USF.COMPS:BGC:1,2010-01-01T15:36:00Z,26.4040,-81.8810,-0.223,1111122 
COMPS,ioos:station:USF.COMPS:BGC:1,2010-01-01T15:42:00Z,26.4040,-81.8810,-0.211,1111122 
COMPS,ioos:station:USF.COMPS:BGC:1,2010-01-01T15:48:00Z,26.4040,-81.8810,-0.196,1111122 
COMPS,ioos:station:USF.COMPS:BGC:1,2010-01-01T15:54:00Z,26.4040,-81.8810,-0.187,1111122 
COMPS,ioos:station:USF.COMPS:BGC:1,2010-01-01T16:00:00Z,26.4040,-81.8810,-0.181,1111122 
COMPS,ioos:station:USF.COMPS:BGC:1,2010-01-01T16:06:00Z,26.4040,-81.8810,-0.143,1111122 
COMPS,ioos:station:USF.COMPS:BGC:1,2010-01-01T16:12:00Z,26.4040,-81.8810,-0.138,1111122 
COMPS,ioos:station:USF.COMPS:BGC:1,2010-01-01T16:18:00Z,26.4040,-81.8810,-0.137,1111122 
COMPS,ioos:station:USF.COMPS:BGC:1,2010-01-01T16:24:00Z,26.4040,-81.8810,-0.102,1111122 
COMPS,ioos:station:USF.COMPS:BGC:1,2010-01-01T16:30:00Z,26.4040,-81.8810,-0.072,1111122 
COMPS,ioos:station:USF.COMPS:BGC:1,2010-01-01T16:36:00Z,26.4040,-81.8810,-0.077,1111122 
COMPS,ioos:station:USF.COMPS:BGC:1,2010-01-01T16:42:00Z,26.4040,-81.8810,-0.048,1111122 
COMPS,ioos:station:USF.COMPS:BGC:1,2010-01-01T16:48:00Z,26.4040,-81.8810,-0.024,1111122 
COMPS,ioos:station:USF.COMPS:BGC:1,2010-01-01T16:54:00Z,26.4040,-81.8810,0.003,1111122 
COMPS,ioos:station:USF.COMPS:BGC:1,2010-01-01T19:00:00Z,26.4040,-81.8810,0.284,1111122 
COMPS,ioos:station:USF.COMPS:BGC:1,2010-01-01T19:06:00Z,26.4040,-81.8810,0.281,1111122 
COMPS,ioos:station:USF.COMPS:BGC:1,2010-01-01T19:12:00Z,26.4040,-81.8810,0.265,1111122 
COMPS,ioos:station:USF.COMPS:BGC:1,2010-01-01T19:18:00Z,26.4040,-81.8810,0.266,1111122 
COMPS,ioos:station:USF.COMPS:BGC:1,2010-01-01T19:24:00Z,26.4040,-81.8810,0.274,1111122 
COMPS,ioos:station:USF.COMPS:BGC:1,2010-01-01T19:30:00Z,26.4040,-81.8810,0.285,1111122 
COMPS,ioos:station:USF.COMPS:BGC:1,2010-01-01T19:36:00Z,26.4040,-81.8810,0.258,1111122 
COMPS,ioos:station:USF.COMPS:BGC:1,2010-01-01T19:42:00Z,26.4040,-81.8810,0.251,1111122 
COMPS,ioos:station:USF.COMPS:BGC:1,2010-01-01T19:48:00Z,26.4040,-81.8810,0.213,1111122 
COMPS,ioos:station:USF.COMPS:BGC:1,2010-01-01T19:54:00Z,26.4040,-81.8810,0.217,1111122 
COMPS,ioos:station:USF.COMPS:BGC:1,2010-01-01T20:00:00Z,26.4040,-81.8810,0.212,1111122 
COMPS,ioos:station:USF.COMPS:BGC:1,2010-01-01T20:06:00Z,26.4040,-81.8810,0.2,1111122 
COMPS,ioos:station:USF.COMPS:BGC:1,2010-01-01T20:12:00Z,26.4040,-81.8810,0.176,1111122 
COMPS,ioos:station:USF.COMPS:BGC:1,2010-01-01T20:18:00Z,26.4040,-81.8810,0.156,1111122 
COMPS,ioos:station:USF.COMPS:BGC:1,2010-01-01T20:24:00Z,26.4040,-81.8810,0.164,1111122 
COMPS,ioos:station:USF.COMPS:BGC:1,2010-01-01T20:30:00Z,26.4040,-81.8810,0.123,1111122 
COMPS,ioos:station:USF.COMPS:BGC:1,2010-01-01T20:36:00Z,26.4040,-81.8810,0.101,1111122 
COMPS,ioos:station:USF.COMPS:BGC:1,2010-01-01T20:42:00Z,26.4040,-81.8810,0.09,1111122 
COMPS,ioos:station:USF.COMPS:BGC:1,2010-01-01T20:48:00Z,26.4040,-81.8810,0.098,1111122 
COMPS,ioos:station:USF.COMPS:BGC:1,2010-01-01T20:54:00Z,26.4040,-81.8810,0.042,1111122 
COMPS,ioos:station:USF.COMPS:BGC:1,2010-01-01T21:00:00Z,26.4040,-81.8810,0.029,1111122 
COMPS,ioos:station:USF.COMPS:BGC:1,2010-01-01T21:06:00Z,26.4040,-81.8810,0.031,1111122 
COMPS,ioos:station:USF.COMPS:BGC:1,2010-01-01T21:12:00Z,26.4040,-81.8810,0.015,1111122 
COMPS,ioos:station:USF.COMPS:BGC:1,2010-01-01T21:18:00Z,26.4040,-81.8810,0.019,1111122 
COMPS,ioos:station:USF.COMPS:BGC:1,2010-01-01T21:24:00Z,26.4040,-81.8810,-0.031,1111122 
COMPS,ioos:station:USF.COMPS:BGC:1,2010-01-01T21:30:00Z,26.4040,-81.8810,-0.02,1111122 
COMPS,ioos:station:USF.COMPS:BGC:1,2010-01-01T21:36:00Z,26.4040,-81.8810,-0.002,1111122 
COMPS,ioos:station:USF.COMPS:BGC:1,2010-01-01T21:42:00Z,26.4040,-81.8810,0.025,1111122 
COMPS,ioos:station:USF.COMPS:BGC:1,2010-01-01T21:48:00Z,26.4040,-81.8810,-0.078,1111122 
COMPS,ioos:station:USF.COMPS:BGC:1,2010-01-01T21:54:00Z,26.4040,-81.8810,-0.062,1111122 
COMPS,ioos:station:USF.COMPS:BGC:1,2010-01-01T22:00:00Z,26.4040,-81.8810,-0.096,1111122 
COMPS,ioos:station:USF.COMPS:BGC:1,2010-01-01T22:06:00Z,26.4040,-81.8810,-0.101,1111122 
COMPS,ioos:station:USF.COMPS:BGC:1,2010-01-01T22:12:00Z,26.4040,-81.8810,-0.061,1111122 
COMPS,ioos:station:USF.COMPS:BGC:1,2010-01-01T22:18:00Z,26.4040,-81.8810,-0.097,1111122 
COMPS,ioos:station:USF.COMPS:BGC:1,2010-01-01T22:24:00Z,26.4040,-81.8810,-0.104,1111122 
COMPS,ioos:station:USF.COMPS:BGC:1,2010-01-01T22:30:00Z,26.4040,-81.8810,-0.136,1111122 
COMPS,ioos:station:USF.COMPS:BGC:1,2010-01-01T22:36:00Z,26.4040,-81.8810,-0.152,1111122 
COMPS,ioos:station:USF.COMPS:BGC:1,2010-01-01T22:42:00Z,26.4040,-81.8810,-0.169,1111122 
COMPS,ioos:station:USF.COMPS:BGC:1,2010-01-01T22:48:00Z,26.4040,-81.8810,-0.161,1111122 
COMPS,ioos:station:USF.COMPS:BGC:1,2010-01-01T22:54:00Z,26.4040,-81.8810,-0.175,1111122 
COMPS,ioos:station:USF.COMPS:BGC:1,2010-01-01T23:00:00Z,26.4040,-81.8810,-0.203,1111122 
COMPS,ioos:station:USF.COMPS:BGC:1,2010-01-01T23:06:00Z,26.4040,-81.8810,-0.212,1111122 
COMPS,ioos:station:USF.COMPS:BGC:1,2010-01-01T23:12:00Z,26.4040,-81.8810,-0.243,1111122 
COMPS,ioos:station:USF.COMPS:BGC:1,2010-01-01T23:18:00Z,26.4040,-81.8810,-0.241,1111122 
COMPS,ioos:station:USF.COMPS:BGC:1,2010-01-01T23:24:00Z,26.4040,-81.8810,-0.266,1111122 
COMPS,ioos:station:USF.COMPS:BGC:1,2010-01-01T23:30:00Z,26.4040,-81.8810,-0.27,1111122 
COMPS,ioos:station:USF.COMPS:BGC:1,2010-01-01T23:36:00Z,26.4040,-81.8810,-0.276,1111122 
COMPS,ioos:station:USF.COMPS:BGC:1,2010-01-01T23:42:00Z,26.4040,-81.8810,-0.278,1111122 
COMPS,ioos:station:USF.COMPS:BGC:1,2010-01-01T23:48:00Z,26.4040,-81.8810,-0.289,1111122 
COMPS,ioos:station:USF.COMPS:BGC:1,2010-01-01T23:54:00Z,26.4040,-81.8810,-0.303,1111122 
COMPS,ioos:station:USF.COMPS:BGC:1,2010-01-02T00:00:00Z,26.4040,-81.8810,-0.311,1111122 
COMPS,ioos:station:USF.COMPS:BGC:1,2010-01-02T00:06:00Z,26.4040,-81.8810,-0.302,1111122 
COMPS,ioos:station:USF.COMPS:BGC:1,2010-01-02T00:12:00Z,26.4040,-81.8810,-0.312,1111122 
COMPS,ioos:station:USF.COMPS:BGC:1,2010-01-02T00:18:00Z,26.4040,-81.8810,-0.285,1111122 
COMPS,ioos:station:USF.COMPS:BGC:1,2010-01-02T00:24:00Z,26.4040,-81.8810,-0.299,1111122 
COMPS,ioos:station:USF.COMPS:BGC:1,2010-01-02T00:30:00Z,26.4040,-81.8810,-0.298,1111122 
COMPS,ioos:station:USF.COMPS:BGC:1,2010-01-02T00:36:00Z,26.4040,-81.8810,-0.274,1111122 
COMPS,ioos:station:USF.COMPS:BGC:1,2010-01-02T00:42:00Z,26.4040,-81.8810,-0.264,1111122 
COMPS,ioos:station:USF.COMPS:BGC:1,2010-01-02T00:48:00Z,26.4040,-81.8810,-0.294,1111122 
COMPS,ioos:station:USF.COMPS:BGC:1,2010-01-02T00:54:00Z,26.4040,-81.8810,-0.268,1111122 
COMPS,ioos:station:USF.COMPS:BGC:1,2010-01-02T01:00:00Z,26.4040,-81.8810,-0.242,1111122 
COMPS,ioos:station:USF.COMPS:BGC:1,2010-01-02T01:06:00Z,26.4040,-81.8810,-0.245,1111122 
COMPS,ioos:station:USF.COMPS:BGC:1,2010-01-02T01:12:00Z,26.4040,-81.8810,-0.247,1111122 
COMPS,ioos:station:USF.COMPS:BGC:1,2010-01-02T01:18:00Z,26.4040,-81.8810,-0.237,1111122 
COMPS,ioos:station:USF.COMPS:BGC:1,2010-01-02T01:24:00Z,26.4040,-81.8810,-0.217,1111122 
COMPS,ioos:station:USF.COMPS:BGC:1,2010-01-02T01:30:00Z,26.4040,-81.8810,-0.209,1111122 
COMPS,ioos:station:USF.COMPS:BGC:1,2010-01-02T01:36:00Z,26.4040,-81.8810,-0.214,1111122 
COMPS,ioos:station:USF.COMPS:BGC:1,2010-01-02T01:42:00Z,26.4040,-81.8810,-0.193,1111122 
COMPS,ioos:station:USF.COMPS:BGC:1,2010-01-02T01:48:00Z,26.4040,-81.8810,-0.169,1111122 
COMPS,ioos:station:USF.COMPS:BGC:1,2010-01-02T01:54:00Z,26.4040,-81.8810,-0.175,1111122 
COMPS,ioos:station:USF.COMPS:BGC:1,2010-01-02T02:00:00Z,26.4040,-81.8810,-0.173,1111122 
COMPS,ioos:station:USF.COMPS:BGC:1,2010-01-02T02:06:00Z,26.4040,-81.8810,-0.141,1111122 
COMPS,ioos:station:USF.COMPS:BGC:1,2010-01-02T02:12:00Z,26.4040,-81.8810,-0.139,1111122 
COMPS,ioos:station:USF.COMPS:BGC:1,2010-01-02T02:18:00Z,26.4040,-81.8810,-0.147,1111122 
COMPS,ioos:station:USF.COMPS:BGC:1,2010-01-02T02:24:00Z,26.4040,-81.8810,-0.127,1111122 
COMPS,ioos:station:USF.COMPS:BGC:1,2010-01-02T02:30:00Z,26.4040,-81.8810,-0.098,1111122 
COMPS,ioos:station:USF.COMPS:BGC:1,2010-01-02T02:36:00Z,26.4040,-81.8810,-0.097,1111122 
COMPS,ioos:station:USF.COMPS:BGC:1,2010-01-02T02:42:00Z,26.4040,-81.8810,-0.079,1111122 
COMPS,ioos:station:USF.COMPS:BGC:1,2010-01-02T02:48:00Z,26.4040,-81.8810,-0.065,1111122 
COMPS,ioos:station:USF.COMPS:BGC:1,2010-01-02T02:54:00Z,26.4040,-81.8810,-0.06,1111122 
COMPS,ioos:station:USF.COMPS:BGC:1,2010-01-02T03:00:00Z,26.4040,-81.8810,-0.048,1111122 
COMPS,ioos:station:USF.COMPS:BGC:1,2010-01-02T03:06:00Z,26.4040,-81.8810,-0.031,1111122 
COMPS,ioos:station:USF.COMPS:BGC:1,2010-01-02T03:12:00Z,26.4040,-81.8810,-0.021,1111122 
COMPS,ioos:station:USF.COMPS:BGC:1,2010-01-02T03:18:00Z,26.4040,-81.8810,-0.009,1111122 
COMPS,ioos:station:USF.COMPS:BGC:1,2010-01-02T03:24:00Z,26.4040,-81.8810,0.014,1111122 
COMPS,ioos:station:USF.COMPS:BGC:1,2010-01-02T03:30:00Z,26.4040,-81.8810,0.023,1111122 
COMPS,ioos:station:USF.COMPS:BGC:1,2010-01-02T03:36:00Z,26.4040,-81.8810,0.022,1111122 
COMPS,ioos:station:USF.COMPS:BGC:1,2010-01-02T03:42:00Z,26.4040,-81.8810,0.029,1111122 
COMPS,ioos:station:USF.COMPS:BGC:1,2010-01-02T03:48:00Z,26.4040,-81.8810,0.048,1111122 
COMPS,ioos:station:USF.COMPS:BGC:1,2010-01-02T03:54:00Z,26.4040,-81.8810,0.058,1111122 
COMPS,ioos:station:USF.COMPS:BGC:1,2010-01-02T04:00:00Z,26.4040,-81.8810,0.065,1111122 
COMPS,ioos:station:USF.COMPS:BGC:1,2010-01-02T04:06:00Z,26.4040,-81.8810,0.083,1111122 
COMPS,ioos:station:USF.COMPS:BGC:1,2010-01-02T04:12:00Z,26.4040,-81.8810,0.091,1111122 
COMPS,ioos:station:USF.COMPS:BGC:1,2010-01-02T04:18:00Z,26.4040,-81.8810,0.079,1111122 
COMPS,ioos:station:USF.COMPS:BGC:1,2010-01-02T04:24:00Z,26.4040,-81.8810,0.094,1111122 
COMPS,ioos:station:USF.COMPS:BGC:1,2010-01-02T04:30:00Z,26.4040,-81.8810,0.112,1111122 
COMPS,ioos:station:USF.COMPS:BGC:1,2010-01-02T04:36:00Z,26.4040,-81.8810,0.11,1111122 
COMPS,ioos:station:USF.COMPS:BGC:1,2010-01-02T04:42:00Z,26.4040,-81.8810,0.116,1111122 
COMPS,ioos:station:USF.COMPS:BGC:1,2010-01-02T04:48:00Z,26.4040,-81.8810,0.134,1111122 
COMPS,ioos:station:USF.COMPS:BGC:1,2010-01-02T04:54:00Z,26.4040,-81.8810,0.13,1111122 